Torna al catalogo

STARLINK-32140

AttivoComunicazioniVLEO
NORAD 61511·PAYLOAD·🇺🇸 United States

Lanciato Oct 15, 2024 da Cape Canaveral Space Force Station

Loading…

Prossimi Passaggi (prossime 24 ore)

TLE

AggiornatoSource: CelesTrak SupGP

Epoca: Sep 15, 2026, 03:31 UTC

1 61511C 24183C   26258.14701389  .00067896  00000+0  21825-2 0  2581
2 61511  53.1604 340.8033 0001207  77.7445 235.6660 15.31680447    18

Traccia STARLINK-32140 in tempo reale con AllMySat

Download on the App Store